This demonstration page uses our WeatherBlox Daily Observations layout. Learn more.

Left ArrowRight Arrow

39.08367, -84.50855

Hourly Observations for May 20, 2019

Temp ( °F °C ) Dew Point ( °F °C ) Humidity (%) Winds ( mph kmh ) Pressure ( in mb ) Visibility ( mi km ) Precip ( " mm )
12:53 am 00:53 Cloudy 64 17.8 62 16.7 93 93 SSW 5 7 29.87 1011 10 16 0.05 1.27
1:53 am 01:53 Cloudy 64 17.8 62 16.7 93 93 N N/A 29.88 1012 10 16 N/A
2:53 am 02:53 Mostly Cloudy 63 17.2 61 16.1 93 93 SSW 3 6 29.89 1012 10 16 N/A
3:53 am 03:53 Mostly Clear 62 16.7 61 16.1 96 96 SSE 5 7 29.90 1013 10 16 N/A
4:53 am 04:53 Clear 62 16.7 60 15.6 93 93 S 3 6 29.92 1013 10 16 N/A
5:28 am 05:28 Mostly Cloudy 62 16.7 60 15.6 93 93 N N/A 29.93 1014 10 16 N/A
5:53 am 05:53 Cloudy 63 17.2 59 15 87 87 W 5 7 29.94 1014 10 16 N/A
6:53 am 06:53 Mostly Cloudy 60 15.6 58 14.4 93 93 N N/A 29.96 1015 10 16 N/A
7:53 am 07:53 Mostly Cloudy 61 16.1 54 12.2 78 78 SW 7 11 29.98 1015 10 16 N/A
8:53 am 08:53 Sunny 63 17.2 52 11.1 68 68 W 10 17 29.99 1016 10 16 N/A
9:53 am 09:53 Sunny 64 17.8 51 10.6 63 63 WSW 17 28 30.00 1016 10 16 N/A
10:53 am 10:53 Sunny 66 18.9 51 10.6 59 59 WSW 10 17 30.01 1016 10 16 N/A
11:53 am 11:53 Sunny 68 20 50 10 53 53 W 14 22 30.02 1017 10 16 N/A
12:53 pm 12:53 Sunny 70 21.1 51 10.6 51 51 W 13 20 30.02 1017 10 16 N/A
1:53 pm 13:53 Sunny 71 21.7 51 10.6 49 49 WSW 16 26 30.02 1017 10 16 N/A
2:53 pm 14:53 Mostly Sunny 70 21.1 51 10.6 51 51 W 9 15 30.01 1016 10 16 N/A
3:53 pm 15:53 Mostly Cloudy 72 22.2 53 11.7 52 52 W 12 19 30.00 1016 10 16 N/A
4:53 pm 16:53 Mostly Cloudy 72 22.2 52 11.1 50 50 VRB 6 9 30.01 1016 10 16 N/A
5:53 pm 17:53 Mostly Cloudy 70 21.1 52 11.1 53 53 NNW 8 13 30.02 1017 10 16 N/A
6:53 pm 18:53 Partly Cloudy 69 20.6 52 11.1 55 55 NNW 9 15 30.03 1017 10 16 N/A
7:53 pm 19:53 Mostly Sunny 66 18.9 51 10.6 59 59 NW 8 13 30.04 1017 10 16 N/A
8:53 pm 20:53 Clear 61 16.1 50 10 67 67 N 10 17 30.06 1018 10 16 N/A
9:53 pm 21:53 Clear 59 15 49 9.4 69 69 NNE 7 11 30.05 1018 10 16 N/A
10:53 pm 22:53 Clear 57 13.9 47 8.3 69 69 N 9 15 30.08 1019 10 16 N/A
11:53 pm 23:53 Clear 55 12.8 47 8.3 74 74 N 12 19 30.09 1019 10 16 N/A

Powered by AerisWeather